Location: Clermont
(50.2608°N, 4.3172°E)
Time: 05:06:51
(UTC+00:00)

Spot 2 Rocket - Pass Details

Date: 13 August 2020
Orbit: 756 x 773 km, 98.6° (Epoch: 19 September)

Event Time Altitude Azimuth Distance (km) Brightness Sun altitude
Exits shadow 20:25:34 14° 153° (SSE) 2,064 5.2 -11.8°
Maximum altitude 20:30:00 70° 71° (ENE) 822 3.5 -12.3°
Drops below altitude 10° 20:35:04 10° 349° (N) 2,319 6.8 -12.9°
Sets 20:37:24 0° 347° (NNW) 3,248 7.7 -13.2°
